User: anonymous   Login
Location: Unspecified
(0.0000°N, 0.0000°E)
Time: 02:10:46
(UTC+01:00)
Language:

Cosmos 1758 - Orbit

View from above orbital plane
View from above orbital plane
View from above satellite
View from above satellite

Ground track
Ground track

The orbit data is extracted from the following two-line orbital elements,

1 16791U 86046A   17023.53047927  .00000266  00000-0  16990-4 0  9991
2 16791  82.4705 172.9979 0015812 216.6219 143.3928 15.04283358663936
Epoch (UTC): 23 January 2017 12:43:53
Eccentricity: 0.0015812
inclination: 82.4705°
perigee height: 543 km
apogee height: 564 km
right ascension of ascending node: 172.9979°
argument of perigee: 216.6219°
revolutions per day: 15.04283358
mean anomaly at epoch: 143.3928°
orbit number at epoch: 66393

The dashed part of the orbit path shows where the satellite is in the earth's shadow,  

DLR